TimePDT,TemperatureF,Dew PointF,Humidity,Sea Level PressureIn,VisibilityMPH,Wind Direction,Wind SpeedMPH,Gust SpeedMPH,PrecipitationIn,Events,Conditions,WindDirDegrees,DateUTC
12:52 AM,73.9,46.0,37,29.81,10.0,NNW,16.1,24.2,N/A,,Clear,340,2013-03-21 07:52:00
1:52 AM,72.0,46.9,41,29.78,10.0,NW,13.8,21.9,N/A,,Clear,320,2013-03-21 08:52:00
2:52 AM,72.0,46.0,40,29.76,10.0,NNW,15.0,24.2,N/A,,Clear,330,2013-03-21 09:52:00
3:52 AM,71.1,45.0,39,29.74,10.0,NNW,11.5,-,N/A,,Clear,330,2013-03-21 10:52:00
4:52 AM,70.0,45.0,41,29.74,10.0,NW,11.5,-,N/A,,Clear,310,2013-03-21 11:52:00
5:52 AM,70.0,44.1,39,29.77,10.0,WNW,9.2,-,N/A,,Clear,290,2013-03-21 12:52:00
6:52 AM,66.9,45.0,45,29.76,10.0,North,6.9,-,N/A,,Clear,360,2013-03-21 13:52:00
7:52 AM,66.9,45.0,45,29.78,10.0,NNW,9.2,-,N/A,,Clear,340,2013-03-21 14:52:00
8:52 AM,71.1,45.0,39,29.78,10.0,NNW,13.8,23.0,N/A,,Clear,330,2013-03-21 15:52:00
9:52 AM,75.9,45.0,33,29.78,10.0,NW,10.4,-,N/A,,Clear,320,2013-03-21 16:52:00
10:52 AM,79.0,43.0,28,29.78,10.0,WNW,8.1,16.1,N/A,,Clear,290,2013-03-21 17:52:00
11:52 AM,82.9,35.1,18,29.76,10.0,WNW,10.4,-,N/A,,Clear,300,2013-03-21 18:52:00
12:52 PM,87.1,28.0,12,29.73,10.0,NNW,5.8,-,N/A,,Clear,340,2013-03-21 19:52:00
1:52 PM,89.1,28.9,12,29.70,10.0,NNW,5.8,-,N/A,,Clear,340,2013-03-21 20:52:00
2:52 PM,90.0,28.9,11,29.66,10.0,Variable,4.6,-,N/A,,Clear,0,2013-03-21 21:52:00
3:52 PM,91.9,33.1,12,29.64,10.0,SSE,10.4,17.3,N/A,,Clear,150,2013-03-21 22:52:00
4:52 PM,89.1,33.1,14,29.63,10.0,SE,9.2,-,N/A,,Clear,130,2013-03-21 23:52:00
5:52 PM,86.0,35.1,16,29.65,10.0,ESE,3.5,-,N/A,,Clear,110,2013-03-22 00:52:00
6:52 PM,82.0,42.1,24,29.63,10.0,NW,13.8,-,N/A,,Clear,320,2013-03-22 01:52:00
7:52 PM,78.1,44.1,30,29.64,10.0,NW,11.5,-,N/A,,Clear,320,2013-03-22 02:52:00
8:52 PM,75.9,45.0,33,29.64,10.0,NNW,11.5,-,N/A,,Clear,330,2013-03-22 03:52:00
9:52 PM,73.9,45.0,35,29.65,10.0,NNW,16.1,25.3,N/A,,Clear,330,2013-03-22 04:52:00
10:52 PM,72.0,46.9,41,29.65,10.0,NNW,16.1,-,N/A,,Clear,340,2013-03-22 05:52:00
11:52 PM,70.0,48.0,46,29.65,10.0,NNW,11.5,-,N/A,,Clear,340,2013-03-22 06:52:00